DW3637 Weather Reports


time (UTC)temp
C
wind
direction
speed
KPH
gust
KPH
rain 1hr
cm
rain 24hr
cm
rain mn
cm
humidity
%
barometer
mb
20260508022516 10 0.0 6.4 0.00 0.08 0.05 44 1008.5
20260508021517 10 0.0 3.2 0.00 0.10 0.05 44 1008.5
20260508020517 10 0.0 1.6 0.00 0.10 0.05 44 1008.6
20260508015519 10 0.0 3.2 0.00 0.10 0.05 44 1008.5
20260508014517 10 0.0 1.6 0.00 0.10 0.05 46 1008.5
20260508013516 10 0.0 3.2 0.00 0.13 0.05 47 1008.6
20260508012516 10 0.0 1.6 0.00 0.13 0.05 47 1008.5
20260508011556 10 0.0 1.6 0.00 0.13 0.05 45 1008.3
20260508010516 11 0.0 1.6 0.00 0.15 0.05 44 1008.2
20260508005537 11 0.0 0.0 0.00 0.23 0.05 43 1008.0
20260508004516 11 0.0 1.6 0.00 0.23 0.05 42 1007.8
20260508003516 11 0.0 1.6 0.00 0.23 0.05 42 1007.7
20260508002516 12 0.0 1.6 0.00 0.23 0.05 41 1007.6
20260508001517 12 23 1.6 8.0 0.00 0.23 0.05 39 1007.6
20260508000516 12 0 1.6 4.8 0.00 0.23 0.05 39 1007.5
20260507235516 12 23 3.2 12.9 0.00 0.23 0.05 38 1007.4
20260507234516 13 0.0 3.2 0.00 0.23 0.05 39 1007.4
20260507233516 13 45 1.6 8.0 0.00 0.23 0.05 38 1007.2
20260507232516 13 315 1.6 8.0 0.00 0.23 0.05 37 1007.1
20260507231516 15 338 1.6 6.4 0.00 0.23 0.05 36 1007.0
20260507230516 15 23 3.2 16.1 0.00 0.23 0.05 35 1007.0
20260507225516 15 23 3.2 9.7 0.00 0.23 0.05 35 1007.0
20260507224516 15 45 1.6 6.4 0.00 0.23 0.05 37 1007.1
20260507223516 15 315 4.8 16.1 0.00 0.23 0.05 37 1007.0
20260507222536 15 45 4.8 14.5 0.00 0.23 0.05 35 1006.9
20260507221516 15 0 3.2 12.9 0.00 0.23 0.05 38 1006.8
20260507220516 15 45 3.2 12.9 0.00 0.25 0.05 36 1006.7
20260507215516 15 23 4.8 11.3 0.00 0.25 0.05 37 1006.7
20260507214536 15 23 3.2 11.3 0.00 0.28 0.05 37 1006.7
20260507213516 15 45 4.8 11.3 0.00 0.28 0.05 37 1006.5
20260507212516 15 23 3.2 9.7 0.00 0.28 0.05 37 1006.5
20260507211516 16 23 4.8 16.1 0.00 0.28 0.05 35 1006.5
20260507210516 16 23 6.4 16.1 0.00 0.28 0.05 33 1006.4
20260507205516 17 23 3.2 9.7 0.00 0.30 0.05 34 1006.3
20260507204516 17 23 4.8 11.3 0.00 0.30 0.05 33 1006.3
20260507203516 17 315 3.2 11.3 0.00 0.30 0.05 34 1006.3
20260507202516 17 23 3.2 11.3 0.00 0.30 0.05 34 1006.4
20260507201516 17 23 4.8 12.9 0.00 0.33 0.05 35 1006.5
20260507200536 17 23 4.8 14.5 0.00 0.36 0.05 35 1006.6
20260507195516 16 23 4.8 19.3 0.00 0.36 0.05 36 1006.6
20260507194516 16 45 3.2 14.5 0.00 0.38 0.05 36 1006.8
20260507193557 16 23 3.2 14.5 0.00 0.38 0.05 36 1006.9
20260507192516 16 23 4.8 14.5 0.00 0.38 0.05 36 1007.0
20260507191515 17 23 3.2 12.9 0.00 0.41 0.05 34 1006.8
20260507190515 17 45 4.8 11.3 0.00 0.41 0.05 35 1007.0
20260507185518 17 45 4.8 16.1 0.00 0.41 0.05 34 1007.1
20260507184516 17 23 6.4 17.7 0.00 0.41 0.05 35 1007.1
20260507183519 17 45 4.8 14.5 0.00 0.41 0.05 35 1007.0
20260507182515 17 0 6.4 16.1 0.00 0.43 0.05 34 1007.1
20260507181515 17 338 4.8 16.1 0.00 0.43 0.05 35 1007.2
20260507180536 17 270 4.8 16.1 0.00 0.43 0.05 38 1007.4
20260507175518 17 0 4.8 17.7 0.00 0.46 0.05 35 1007.4
20260507174535 17 293 6.4 19.3 0.00 0.46 0.05 34 1007.5
20260507173515 17 338 4.8 12.9 0.00 0.48 0.05 35 1007.3
20260507172515 17 338 4.8 14.5 0.00 0.51 0.05 32 1007.6
20260507171517 17 270 3.2 14.5 0.00 0.51 0.05 36 1007.4
20260507170520 16 315 6.4 16.1 0.00 0.51 0.05 36 1007.5
20260507165518 16 45 3.2 11.3 0.00 0.51 0.05 36 1007.5
20260507164522 16 248 4.8 11.3 0.00 0.51 0.05 37 1007.8
20260507163549 16 23 3.2 11.3 0.00 0.51 0.05 37 1007.9
20260507162537 16 45 4.8 19.3 0.00 0.51 0.05 35 1008.1
20260507161523 16 45 4.8 12.9 0.00 0.51 0.05 38 1008.2
20260507160519 16 23 3.2 11.3 0.00 0.51 0.05 38 1008.5
20260507155519 15 23 3.2 14.5 0.00 0.51 0.05 40 1008.5
20260507154517 15 45 3.2 9.7 0.00 0.51 0.05 39 1008.6
20260507153518 15 90 3.2 9.7 0.00 0.51 0.05 39 1008.6
20260507152517 15 113 3.2 9.7 0.00 0.51 0.05 39 1008.6
20260507151537 15 23 3.2 11.3 0.00 0.51 0.05 38 1008.6
20260507150518 15 68 1.6 6.4 0.00 0.51 0.05 40 1008.6
20260507145517 14 45 3.2 8.0 0.00 0.51 0.05 44 1008.8
20260507144520 14 45 3.2 14.5 0.00 0.51 0.05 40 1008.9
20260507143517 14 23 3.2 12.9 0.00 0.51 0.05 42 1009.0
20260507142538 14 23 1.6 9.7 0.00 0.51 0.05 43 1009.0
20260507141517 13 0 1.6 9.7 0.00 0.51 0.05 48 1009.0
20260507140517 13 338 6.4 17.7 0.00 0.51 0.05 44 1008.9
20260507135517 13 45 3.2 9.7 0.00 0.51 0.05 46 1009.0
20260507134517 12 0 1.6 9.7 0.00 0.51 0.05 47 1008.9
20260507133517 12 23 3.2 12.9 0.00 0.51 0.05 48 1008.9
20260507132517 12 23 3.2 8.0 0.00 0.51 0.05 48 1008.9
20260507131517 12 23 3.2 12.9 0.00 0.51 0.05 52 1008.9
20260507130517 12 23 3.2 8.0 0.00 0.51 0.05 54 1008.9
20260507125517 12 23 1.6 6.4 0.00 0.51 0.05 56 1008.8
20260507124517 11 23 3.2 11.3 0.00 0.51 0.05 58 1008.9
20260507123517 11 45 3.2 8.0 0.00 0.51 0.05 61 1008.8
20260507122537 11 45 3.2 17.7 0.00 0.51 0.05 64 1008.8
20260507121517 11 23 3.2 11.3 0.00 0.51 0.05 66 1008.9
20260507120517 10 0 3.2 12.9 0.00 0.51 0.05 69 1008.9
20260507115517 10 315 6.4 16.1 0.00 0.51 0.05 71 1008.9
20260507114517 10 293 3.2 12.9 0.00 0.51 0.05 76 1008.7
20260507113517 10 293 4.8 12.9 0.00 0.51 0.05 77 1008.7
20260507112537 10 338 4.8 12.9 0.00 0.51 0.05 80 1008.5
20260507111518 9 315 3.2 11.3 0.00 0.51 0.05 81 1008.4
20260507110518 9 315 1.6 8.0 0.00 0.51 0.05 83 1008.4
20260507105517 9 270 1.6 8.0 0.00 0.51 0.05 84 1008.3
20260507104517 9 338 1.6 6.4 0.00 0.51 0.05 84 1008.1
20260507103518 9 338 1.6 6.4 0.00 0.51 0.05 85 1007.8
20260507102517 9 45 1.6 6.4 0.00 0.51 0.05 85 1007.6
20260507101517 9 23 1.6 8.0 0.00 0.51 0.05 85 1007.5
20260507100517 9 23 3.2 8.0 0.00 0.51 0.05 86 1007.6
20260507095517 9 315 3.2 8.0 0.00 0.51 0.05 87 1007.6
20260507094517 9 0.0 3.2 0.00 0.51 0.05 87 1007.4
20260507093517 9 0.0 3.2 0.00 0.51 0.05 88 1007.4
20260507092557 9 338 1.6 9.7 0.00 0.51 0.05 88 1007.4
20260507091517 9 0.0 3.2 0.00 0.51 0.05 89 1007.6
20260507090517 9 0 1.6 6.4 0.00 0.51 0.05 90 1007.3
20260507085517 9 0.0 3.2 0.00 0.51 0.05 91 1007.5
20260507084537 10 270 1.6 6.4 0.00 0.51 0.05 92 1007.5
20260507083516 10 0.0 8.0 0.00 0.51 0.05 92 1007.9
20260507082517 10 0.0 0.0 0.00 0.51 0.05 92 1007.7
20260507081517 10 0.0 1.6 0.00 0.51 0.05 92 1008.0
20260507080517 10 0.0 3.2 0.00 0.51 0.05 92 1007.9
20260507075517 10 0.0 1.6 0.03 0.51 0.05 92 1007.6
20260507074517 10 0.0 1.6 0.05 0.51 0.05 92 1007.6
20260507073537 10 0.0 0.0 0.05 0.51 0.05 91 1007.3
20260507072517 10 0.0 0.0 0.05 0.51 0.05 91 1007.5
20260507071517 10 0.0 0.0 0.05 0.51 0.05 91 1007.6
20260507070536 10 0.0 3.2 0.05 0.51 0.05 90 1007.1
20260507065517 10 0.0 1.6 0.03 0.48 0.03 90 1007.2
20260507064517 10 0.0 4.8 0.00 0.46 0.00 90 1007.6
20260507063516 11 0.0 1.6 0.00 0.46 0.00 90 1007.3
20260507062516 11 0.0 3.2 0.00 0.46 0.00 90 1007.0
20260507061557 11 0.0 3.2 0.00 0.46 0.00 90 1006.7
20260507060516 11 0.0 3.2 0.00 0.46 0.00 90 1006.6
20260507055517 11 0.0 1.6 0.00 0.46 0.00 90 1006.7
20260507054516 11 0.0 6.4 0.00 0.46 0.00 91 1007.2
20260507053516 11 0.0 1.6 0.00 0.46 0.00 90 1007.3
20260507052516 11 0.0 1.6 0.00 0.46 0.00 91 1007.5
20260507051517 11 0.0 1.6 0.00 0.46 0.00 91 1007.2
20260507050516 11 0.0 1.6 0.00 0.46 0.00 91 1007.4
20260507045516 11 0.0 3.2 0.00 0.46 0.00 91 1007.9
20260507044516 11 0.0 0.0 0.00 0.46 0.00 90 1007.7
20260507043520 11 0.0 1.6 0.00 0.46 0.00 90 1007.6
20260507042516 11 0.0 0.0 0.00 0.46 0.00 90 1007.5
20260507041517 11 0.0 0.0 0.00 0.46 0.00 90 1007.4
20260507040516 11 0.0 0.0 0.00 0.46 0.00 90 1007.5
20260507035517 11 0.0 0.0 0.03 0.46 0.46 90 1007.3
20260507034516 11 0.0 1.6 0.03 0.46 0.46 90 1007.3
20260507033517 11 0.0 3.2 0.03 0.46 0.46 91 1007.3
20260507032517 11 0.0 4.8 0.03 0.46 0.46 91 1007.4
20260507031537 12 315 1.6 4.8 0.05 0.46 0.46 92 1007.4
20260507030517 12 0.0 1.6 0.05 0.46 0.46 92 1007.2
20260507025537 12 0.0 3.2 0.03 0.43 0.43 92 1007.2
20260507024516 12 0.0 6.4 0.03 0.43 0.43 93 1007.1
20260507023517 13 0.0 1.6 0.05 0.43 0.43 93 1007.0